Regional Weather Roundup
Issued by NWS

Home | Current Version | Previous Version | Graphics & Text | Print | Product List | Glossary On
Versions: 1 2 3 4 5 6 7 8 9 10 11 12 13 14 15 16 17 18 19 20 21 22 23 24 25 26 27 28 29 30 31 32 33 34 35 36 37 38 39 40 41 42 43 44 45 46 47 48 49 50
762
ASUS45 KPSR 082210
RWRAZ

ARIZONA HOURLY REGIONAL WEATHER ROUNDUP
NATIONAL WEATHER SERVICE PHOENIX AZ
300 PM MST MON FEB 08 2016

NOTE: FAIR INDICATES FEW OR NO CLOUDS BELOW 12,000 FEET WITH NO
SIGNIFICANT WEATHER AND/OR OBSTRUCTIONS TO VISIBILITY.

AZZ001>003-036-082300-
NORTHWEST ARIZONA

CITY           SKY/WX    TMP DP  RH WIND       PRES   REMARKS
BULLHEAD CITY  SUNNY     73  25  16 N31G39    30.22F
KINGMAN        SUNNY     67  20  16 N16       30.32F
$$

AZZ004>008-015-016-018-082300-
NORTH CENTRAL ARIZONA

CITY           SKY/WX    TMP DP  RH WIND       PRES   REMARKS
GRAND CANYON   SUNNY     54  19  25 NE14      30.47F
WILLIAMS       SUNNY     57  19  23 NE14G21   30.47F
PRESCOTT       SUNNY     70  13  11 N16       30.33F
FLAGSTAFF      SUNNY     50  16  25 NE16G22   30.44F
PAYSON         SUNNY     66  16  14 NE17G24   30.34S
PAGE           SUNNY     49  23  36 VRB5      30.48F
$$

AZZ009>014-017-082300-
NORTHEAST ARIZONA

CITY           SKY/WX    TMP DP  RH WIND       PRES   REMARKS
WINSLOW        SUNNY     58  18  21 VRB5      30.43F
SAINT JOHNS    SUNNY     55  20  25 W9        30.39F
WINDOW ROCK    SUNNY     56   0  10 N13       30.40F
SHOW LOW       SUNNY     48  19  32 N9        30.44F
$$

AZZ023-082300-
GREATER PHOENIX AREA

CITY           SKY/WX    TMP DP  RH WIND       PRES   REMARKS
PHOENIX        MOSUNNY   83  18   9 NE10      30.10F
BUCKEYE        SUNNY     77  23  13 S3        30.14F
GLENDALE       SUNNY     81  23  12 S3        30.13F
LUKE AFB       SUNNY     80  22  11 VRB2      30.10F
DEER VALLEY    SUNNY     81  23  11 S7        30.11F
SCOTTSDALE     SUNNY     80  19  10 S5        30.13F
MESA-FALCON    SUNNY    N/A N/A N/A N17G23    30.11F
MESA-GATEWAY   MOSUNNY   81  21  11 CALM      30.13F
CHANDLER       SUNNY     81  19  10 VRB5      30.12F
$$

AZZ027-028-082300-
SOUTHWEST MARICOPA COUNTY AND PINAL COUNTY

CITY           SKY/WX    TMP DP  RH WIND       PRES   REMARKS
CASA GRANDE    SUNNY     81  25  12 NE15      30.12F
GILA BEND      SUNNY     82  20  10 NE14      30.09F
$$

AZZ503-504-507>509-082300-
SOUTHEAST ARIZONA

CITY           SKY/WX    TMP DP  RH WIND       PRES   REMARKS
TUCSON         SUNNY     80  15   8 SE10      30.15F
DAVIS-MONTHAN  SUNNY     80  18  10 SE9       30.12F
RYAN FIELD     SUNNY     81  23  12 E13G23    30.13F
NOGALES        SUNNY     79  12   8 E14       30.16S
SIERRA VISTA   SUNNY     72  12  10 E12       30.25F
DOUGLAS        SUNNY     72  18  13 E14       30.22F
SAFFORD        SUNNY     70  21  15 SE12      30.22F
$$

AZZ020-021-025-026-031-082300-
SOUTHWEST ARIZONA

CITY           SKY/WX    TMP DP  RH WIND       PRES   REMARKS
YUMA           SUNNY     82  21  10 N13G23    30.11F
$$

CAZ031-033-041-043-047-048-061-082300-
SOUTHERN CALIFORNIA

CITY           SKY/WX    TMP DP  RH WIND       PRES   REMARKS
DOWNTOWN L.A.  SUNNY     86  22   9 CALM      30.08F
L.A. AIRPORT   SUNNY     88  24  10 VRB3      30.08F
SAN DIEGO      SUNNY     83  21  10 NW9       30.08F
BURBANK        SUNNY     86  24  10 VRB3      30.10F
ONTARIO        SUNNY     86  21   9 E12G20    30.10F
RIVERSIDE      SUNNY     82  21  10 NE12G31   30.13F
PALM SPRINGS   SUNNY     81  21  11 W5        30.19F
EL CENTRO NAS  SUNNY     82  18   9 N12       30.17F
IMPERIAL       SUNNY     81  27  14 NW8       30.14F
BLYTHE         SUNNY     82  20  10 N15       30.16F
NEEDLES        SUNNY     76  22  13 N26G37    30.22F
$$

NVZ020-UTZ003-082300-
SOUTHERN NEVADA-UTAH

CITY           SKY/WX    TMP DP  RH WIND       PRES   REMARKS
LAS VEGAS      SUNNY     70  23  17 N7        30.31F
SALT LAKE CITY PTSUNNY   39  28  64 NW7       30.64F WCI  34
$$

NMZ009-TXZ055-082300-
NEW MEXICO-WEST TEXAS

CITY           SKY/WX    TMP DP  RH WIND       PRES   REMARKS
ALBUQUERQUE    SUNNY     59  18  20 N10       30.34F
EL PASO        MOSUNNY   59  15  18 CALM      30.30F
$$


........................KEY........................
SKY/WX - SKY CONDITION/WEATHER
TMP    - TEMPERATURE IN FAHRENHEIT
DP     - DEW POINT IN FAHRENHEIT
RH     - RELATIVE HUMIDITY IN PERCENT
WIND   - DIRECTION AND SPEED IN MILES PER HOUR (MPH)
VRB    - VARIABLE WIND DIRECTION
PRES   - MEAN SEA LEVEL PRESSURE IN INCHES OF MERCURY
         F - FALLING PRESSURE   R - RISING PRESSURE
         S - STEADY PRESSURE
VSB    - VISIBILITY IN MILES
HX     - HEAT INDEX IN FAHRENHEIT
WCI    - WIND CHILL INDEX IN FAHRENHEIT
TC     - TEMPERATURE IN CELSIUS WHICH IS ALSO KNOWN AS
         TEMPERATURE IN CENTIGRADE
AFB    - AIR FORCE BASE
         LUKE AFB IS LUKE AIR FORCE BASE
         DAVIS-MONTHAN IS DAVIS-MONTHAN AIR FORCE BASE
NAS    - NAVAL AIR STATION
         EL CENTRO NAS IS EL CENTRO NAVAL AIR STATION
N/A    - NOT AVAILABLE





USA.gov is the U.S. government's official web portal to all federal, state and local government web resources and services.